Weather History for Guatemala, Guatemala

Change the Weather History Date:

Sunday, August 10, 2014

  Actual Average Record
Temperature  
Mean Temperature 69 °F -  
Max Temperature 78 °F 75 °F 82 °F (2011)
Min Temperature 60 °F 60 °F 59 °F (2013)
Cooling Degree Days 4    
Growing Degree Days 19 (Base 50)    
Moisture  
Dew Point 61 °F    
Average Humidity 77    
Maximum Humidity 100    
Minimum Humidity 49    
Precipitation  
Precipitation 0.08 in - - ()
Sea Level Pressure  
Sea Level Pressure 30.23 in    
Wind  
Wind Speed 9 mph ()    
Max Wind Speed 16 mph    
Max Gust Speed -    
Visibility 6.1 miles    
Events Thunderstorm    
Averages and records for this station are not official NWS values.
T = Trace of Precipitation, MM = Missing Value Source: Averaged Metar Reports

Daily Weather History Graph

Daily Weather History Graph

Search for Another Location

Airport:

Trip Planner

Search our weather history database for the weather conditions in past years. The results will help you decide how hot, cold, wet, or windy it might be!

Date:

Astronomy

Aug. 10, 2014 Rise Set
Actual Time 5:47 AM CST 6:27 PM CST
Civil Twilight 5:25 AM CST 6:49 PM CST
Nautical Twilight 4:58 AM CST 7:15 PM CST
Astronomical Twilight 4:32 AM CST 7:42 PM CST
Moon 6:27 PM CST (8/10) 5:32 AM CST (8/10)
Length of Visible Light 13h 24m
Length of Day
12h 40m
Full, 100% of the Moon is Illuminated
Aug 10
Full
Aug 10
Full
Aug 17
Last Quarter
Aug 25
New
Sep 2
First Quarter

Hourly Weather History & Observations

Time (CST) Temp. Dew Point Humidity Pressure Visibility Wind Dir Wind Speed Gust Speed Precip Events Conditions
12:00 AM 64.4 °F 62.6 °F 94% 30.33 in 6.2 mi North 9.2 mph - N/A   Mostly Cloudy
1:00 AM 64.4 °F 62.6 °F 94% 30.27 in 6.2 mi North 11.5 mph - N/A   Mostly Cloudy
2:00 AM 62.6 °F 62.6 °F 100% 30.27 in 6.2 mi North 11.5 mph - N/A   Scattered Clouds
2:02 AM - - N/A% - 5.0 mi NNE 9.2 mph - N/A   Drizzle
3:00 AM 64.4 °F 62.6 °F 94% 30.27 in 6.2 mi NNW 6.9 mph - N/A   Light Drizzle
4:00 AM 62.6 °F 62.6 °F 100% 30.27 in 6.2 mi North 6.9 mph - N/A   Light Drizzle
5:00 AM 62.6 °F 60.8 °F 94% 30.27 in 6.2 mi NNE 6.9 mph - N/A   Overcast
6:00 AM 62 °F 60 °F 91% 29.98 in 25 mi NNE 6.9 mph - -   Partly Cloudy
6:00 AM 60.8 °F 60.8 °F 100% 30.27 in - NNE 6.9 mph - N/A   Clear
7:00 AM 62.6 °F 62.6 °F 100% 30.27 in - NNE 9.2 mph - N/A   Clear
8:00 AM 66.2 °F 60.8 °F 83% 30.30 in - North 9.2 mph - N/A   Clear
9:00 AM 66.2 °F 59.0 °F 78% 30.30 in 6.2 mi North 11.5 mph - N/A   Mostly Cloudy
10:00 AM 68.0 °F 60.8 °F 78% 30.33 in 6.2 mi North 11.5 mph - N/A   Mostly Cloudy
11:00 AM 71.6 °F 60.8 °F 69% 30.33 in 6.2 mi North 11.5 mph - N/A   Mostly Cloudy
12:00 PM 74 °F 58 °F 49% 29.97 in 25 mi North 11.5 mph - -   Scattered Clouds
12:00 PM 75.2 °F 59.0 °F 57% 30.30 in 6.2 mi North 11.5 mph - N/A   Scattered Clouds
1:00 PM 75.2 °F 59.0 °F 57% 30.30 in 6.2 mi North 11.5 mph - N/A   Scattered Clouds
2:00 PM 75.2 °F 60.8 °F 61% 30.24 in 6.2 mi NNE 9.2 mph - N/A   Partly Cloudy
3:00 PM 75.2 °F 60.8 °F 61% 30.21 in 6.2 mi NNE 9.2 mph - N/A   Partly Cloudy
3:35 PM - - N/A% - 6.2 mi NNE 9.2 mph - N/A Thunderstorm Thunderstorm
4:00 PM 75.2 °F 60.8 °F 61% 30.18 in 6.2 mi NNE 9.2 mph - N/A Thunderstorm Thunderstorm
5:00 PM 75.2 °F 59.0 °F 57% 30.18 in 6.2 mi NNE 11.5 mph - N/A   Scattered Clouds
6:00 PM 74 °F 59 °F 51% 29.84 in 25 mi NNE 13.8 mph - -   Partly Cloudy
6:00 PM 75.2 °F 59.0 °F 57% 30.18 in 6.2 mi NNE 13.8 mph - N/A   Mostly Cloudy
7:00 PM 71.6 °F 60.8 °F 69% 30.21 in 6.2 mi North 16.1 mph - N/A Thunderstorm Thunderstorm
8:00 PM 69.8 °F 64.4 °F 83% 30.27 in 6.2 mi North 16.1 mph - N/A Thunderstorm Thunderstorm
9:00 PM 68.0 °F 62.6 °F 83% 30.30 in 6.2 mi NNE 11.5 mph - N/A   Partly Cloudy
10:00 PM 68.0 °F 62.6 °F 83% 30.33 in 6.2 mi North 11.5 mph - N/A   Partly Cloudy
11:00 PM 66.2 °F 62.6 °F 88% 30.33 in 6.2 mi NNW 16.1 mph - N/A   Mostly Cloudy
11:28 PM - - N/A% - 6.2 mi North 16.1 mph - N/A   Light Drizzle